Year,Month,Day,Hour,Minute,Value (Times are PST for temperature in C)
2012,06,27,00,00,10.40
2012,06,27,00,01,10.40
2012,06,27,00,02,10.40
2012,06,27,00,03,10.40
2012,06,27,00,04,10.40
2012,06,27,00,05,10.40
2012,06,27,00,06,10.30
2012,06,27,00,07,10.30
2012,06,27,00,08,10.30
2012,06,27,00,09,10.20
2012,06,27,00,10,10.20
2012,06,27,00,11,10.20
2012,06,27,00,12,10.20
2012,06,27,00,13,10.10
2012,06,27,00,14,10.10
2012,06,27,00,15,10.10
2012,06,27,00,16,10.00
2012,06,27,00,17,10.00
2012,06,27,00,18,10.00
2012,06,27,00,19,10.00
2012,06,27,00,20,9.90
2012,06,27,00,21,9.90
2012,06,27,00,22,9.80
2012,06,27,00,23,9.80
2012,06,27,00,24,9.80
2012,06,27,00,25,9.80
2012,06,27,00,26,9.80
2012,06,27,00,27,9.70
2012,06,27,00,28,9.70
2012,06,27,00,29,9.70
2012,06,27,00,30,9.60
2012,06,27,00,31,9.60
2012,06,27,00,32,9.60
2012,06,27,00,33,9.60
2012,06,27,00,34,9.60
2012,06,27,00,35,9.60
2012,06,27,00,36,9.60
2012,06,27,00,37,9.50
2012,06,27,00,38,9.40
2012,06,27,00,39,9.40
2012,06,27,00,40,9.40
2012,06,27,00,41,9.30
2012,06,27,00,42,9.30
2012,06,27,00,43,9.30
2012,06,27,00,44,9.20
2012,06,27,00,45,9.20
2012,06,27,00,46,9.20
2012,06,27,00,47,9.20
2012,06,27,00,48,9.10
2012,06,27,00,49,9.10
2012,06,27,00,50,9.10
2012,06,27,00,51,9.00
2012,06,27,00,52,8.90
2012,06,27,00,53,8.90
2012,06,27,00,54,8.90
2012,06,27,00,55,8.90
2012,06,27,00,56,8.90
2012,06,27,00,57,8.90
2012,06,27,00,58,8.90
2012,06,27,00,59,8.90
2012,06,27,01,00,8.90
2012,06,27,01,01,8.90
2012,06,27,01,02,8.90
2012,06,27,01,03,8.90
2012,06,27,01,04,8.90
2012,06,27,01,05,8.80
2012,06,27,01,06,8.80
2012,06,27,01,07,8.80
2012,06,27,01,08,8.80
2012,06,27,01,09,8.70
2012,06,27,01,10,8.70
2012,06,27,01,11,8.70
2012,06,27,01,12,8.60
2012,06,27,01,13,8.60
2012,06,27,01,14,8.60
2012,06,27,01,15,8.60
2012,06,27,01,16,8.60
2012,06,27,01,17,8.60
2012,06,27,01,18,8.60
2012,06,27,01,19,8.60
2012,06,27,01,20,8.60
2012,06,27,01,21,8.70
2012,06,27,01,22,8.70
2012,06,27,01,23,8.70
2012,06,27,01,24,8.80
2012,06,27,01,25,8.80
2012,06,27,01,26,9.00
2012,06,27,01,27,9.00
2012,06,27,01,28,9.10
2012,06,27,01,29,9.20
2012,06,27,01,30,9.30
2012,06,27,01,31,9.40
2012,06,27,01,32,9.60
2012,06,27,01,33,9.70
2012,06,27,01,34,9.70
2012,06,27,01,35,9.80
2012,06,27,01,36,9.80
2012,06,27,01,37,9.80
2012,06,27,01,38,9.80
2012,06,27,01,39,9.90
2012,06,27,01,40,10.00
2012,06,27,01,41,10.00
2012,06,27,01,42,10.10
2012,06,27,01,43,10.10
2012,06,27,01,44,10.10
2012,06,27,01,45,10.10
2012,06,27,01,46,10.10
2012,06,27,01,47,10.10
2012,06,27,01,48,10.10
2012,06,27,01,49,10.10
2012,06,27,01,50,10.20
2012,06,27,01,51,10.20
2012,06,27,01,52,10.20
2012,06,27,01,53,10.20
2012,06,27,01,54,10.20
2012,06,27,01,55,10.20
2012,06,27,01,56,10.20
2012,06,27,01,57,10.20
2012,06,27,01,58,10.10
2012,06,27,01,59,10.10
2012,06,27,02,00,10.00
2012,06,27,02,01,10.00
2012,06,27,02,02,9.90
2012,06,27,02,03,9.90
2012,06,27,02,04,9.90
2012,06,27,02,05,9.80
2012,06,27,02,06,9.80
2012,06,27,02,07,9.80
2012,06,27,02,08,9.70
2012,06,27,02,09,9.70
2012,06,27,02,10,9.60
2012,06,27,02,11,9.60
2012,06,27,02,12,9.50
2012,06,27,02,13,9.50
2012,06,27,02,14,9.40
2012,06,27,02,15,9.30
2012,06,27,02,16,9.30
2012,06,27,02,17,9.20
2012,06,27,02,18,9.20
2012,06,27,02,19,9.10
2012,06,27,02,20,9.10
2012,06,27,02,21,9.00
2012,06,27,02,22,8.90
2012,06,27,02,23,8.90
2012,06,27,02,24,8.80
2012,06,27,02,25,8.80
2012,06,27,02,26,8.70
2012,06,27,02,27,8.70
2012,06,27,02,28,8.60
2012,06,27,02,29,8.60
2012,06,27,02,30,8.50
2012,06,27,02,31,8.50
2012,06,27,02,32,8.40
2012,06,27,02,33,8.40
2012,06,27,02,34,8.30
2012,06,27,02,35,8.30
2012,06,27,02,36,8.30
2012,06,27,02,37,8.20
2012,06,27,02,38,8.20
2012,06,27,02,39,8.20
2012,06,27,02,40,8.10
2012,06,27,02,41,8.10
2012,06,27,02,42,8.00
2012,06,27,02,43,8.00
2012,06,27,02,44,8.00
2012,06,27,02,45,7.90
2012,06,27,02,46,7.90
2012,06,27,02,47,7.90
2012,06,27,02,48,7.90
2012,06,27,02,49,7.80
2012,06,27,02,50,7.80
2012,06,27,02,51,7.80
2012,06,27,02,52,7.80
2012,06,27,02,53,7.80
2012,06,27,02,54,7.70
2012,06,27,02,55,7.70
2012,06,27,02,56,7.70
2012,06,27,02,57,7.60
2012,06,27,02,58,7.60
2012,06,27,02,59,7.60
2012,06,27,03,00,7.60
2012,06,27,03,01,7.50
2012,06,27,03,02,7.50
2012,06,27,03,03,7.60
2012,06,27,03,04,7.60
2012,06,27,03,05,7.60
2012,06,27,03,06,7.70
2012,06,27,03,07,7.70
2012,06,27,03,08,7.70
2012,06,27,03,09,7.70
2012,06,27,03,10,7.80
2012,06,27,03,11,7.80
2012,06,27,03,12,7.80
2012,06,27,03,13,7.80
2012,06,27,03,14,7.80
2012,06,27,03,15,7.80
2012,06,27,03,16,7.80
2012,06,27,03,17,7.80
2012,06,27,03,18,7.80
2012,06,27,03,19,7.90
2012,06,27,03,20,7.90
2012,06,27,03,21,7.90
2012,06,27,03,22,7.90
2012,06,27,03,23,7.90
2012,06,27,03,24,7.90
2012,06,27,03,25,7.90
2012,06,27,03,26,7.90
2012,06,27,03,27,7.80
2012,06,27,03,28,7.80
2012,06,27,03,29,7.90
2012,06,27,03,30,7.90
2012,06,27,03,31,7.90
2012,06,27,03,32,7.90
2012,06,27,03,33,7.90
2012,06,27,03,34,7.90
2012,06,27,03,35,7.90
2012,06,27,03,36,7.90
2012,06,27,03,37,8.00
2012,06,27,03,38,8.00
2012,06,27,03,39,8.00
2012,06,27,03,40,8.00
2012,06,27,03,41,8.10
2012,06,27,03,42,8.10
2012,06,27,03,43,8.10
2012,06,27,03,44,8.20
2012,06,27,03,45,8.20
2012,06,27,03,46,8.30
2012,06,27,03,47,8.30
2012,06,27,03,48,8.30
2012,06,27,03,49,8.30
2012,06,27,03,50,8.30
2012,06,27,03,51,8.30
2012,06,27,03,52,8.20
2012,06,27,03,53,8.20
2012,06,27,03,54,8.20
2012,06,27,03,55,8.20
2012,06,27,03,56,8.10
2012,06,27,03,57,8.10
2012,06,27,03,58,8.00
2012,06,27,03,59,8.00
2012,06,27,04,00,7.90
2012,06,27,04,01,7.90
2012,06,27,04,02,7.80
2012,06,27,04,03,7.80
2012,06,27,04,04,7.80
2012,06,27,04,05,7.70
2012,06,27,04,06,7.70
2012,06,27,04,07,7.70
2012,06,27,04,08,7.60
2012,06,27,04,09,7.60
2012,06,27,04,10,7.50
2012,06,27,04,11,7.50
2012,06,27,04,12,7.40
2012,06,27,04,13,7.40
2012,06,27,04,14,7.30
2012,06,27,04,15,7.30
2012,06,27,04,16,7.30
2012,06,27,04,17,7.30
2012,06,27,04,18,7.20
2012,06,27,04,19,7.20
2012,06,27,04,20,7.20
2012,06,27,04,21,7.20
2012,06,27,04,22,7.20
2012,06,27,04,23,7.20
2012,06,27,04,24,7.10
2012,06,27,04,25,7.10
2012,06,27,04,26,7.10
2012,06,27,04,27,7.10
2012,06,27,04,28,7.10
2012,06,27,04,29,7.00
2012,06,27,04,30,7.00
2012,06,27,04,31,7.00
2012,06,27,04,32,6.90
2012,06,27,04,33,6.90
2012,06,27,04,34,6.90
2012,06,27,04,35,6.90
2012,06,27,04,36,6.90
2012,06,27,04,37,6.90
2012,06,27,04,38,6.90
2012,06,27,04,39,6.90
2012,06,27,04,40,6.80
2012,06,27,04,41,6.80
2012,06,27,04,42,6.80
2012,06,27,04,43,6.80
2012,06,27,04,44,6.80
2012,06,27,04,45,6.80
2012,06,27,04,46,6.70
2012,06,27,04,47,6.70
2012,06,27,04,48,6.70
2012,06,27,04,49,6.70
2012,06,27,04,50,6.70
2012,06,27,04,51,6.70
2012,06,27,04,52,6.60
2012,06,27,04,53,6.60
2012,06,27,04,54,6.60
2012,06,27,04,55,6.60
2012,06,27,04,56,6.60
2012,06,27,04,57,6.60
2012,06,27,04,58,6.50
2012,06,27,04,59,6.50
2012,06,27,05,00,6.50
2012,06,27,05,01,6.50
2012,06,27,05,02,6.50
2012,06,27,05,03,6.40
2012,06,27,05,04,6.40
2012,06,27,05,05,6.40
2012,06,27,05,06,6.40
2012,06,27,05,07,6.40
2012,06,27,05,08,6.40
2012,06,27,05,09,6.40
2012,06,27,05,10,6.40
2012,06,27,05,11,6.40
2012,06,27,05,12,6.40
2012,06,27,05,13,6.40
2012,06,27,05,14,6.30
2012,06,27,05,15,6.30
2012,06,27,05,16,6.30
2012,06,27,05,17,6.30
2012,06,27,05,18,6.30
2012,06,27,05,19,6.30
2012,06,27,05,20,6.30
2012,06,27,05,21,6.30
2012,06,27,05,22,6.30
2012,06,27,05,23,6.30
2012,06,27,05,24,6.30
2012,06,27,05,25,6.30
2012,06,27,05,26,6.30
2012,06,27,05,27,6.30
2012,06,27,05,28,6.30
2012,06,27,05,29,6.30
2012,06,27,05,30,6.30
2012,06,27,05,31,6.30
2012,06,27,05,32,6.30
2012,06,27,05,33,6.30
2012,06,27,05,34,6.30
2012,06,27,05,35,6.30
2012,06,27,05,36,6.30
2012,06,27,05,37,6.30
2012,06,27,05,38,6.30
2012,06,27,05,39,6.30
2012,06,27,05,40,6.30
2012,06,27,05,41,6.30
2012,06,27,05,42,6.30
2012,06,27,05,43,6.30
2012,06,27,05,44,6.30
2012,06,27,05,45,6.30
2012,06,27,05,46,6.30
2012,06,27,05,47,6.30
2012,06,27,05,48,6.30
2012,06,27,05,49,6.30
2012,06,27,05,50,6.30
2012,06,27,05,51,6.30
2012,06,27,05,52,6.30
2012,06,27,05,53,6.30
2012,06,27,05,54,6.30
2012,06,27,05,55,6.30
2012,06,27,05,56,6.30
2012,06,27,05,57,6.30
2012,06,27,05,58,6.30
2012,06,27,05,59,6.30
2012,06,27,06,00,6.30
2012,06,27,06,01,6.30
2012,06,27,06,02,6.30
2012,06,27,06,03,6.30
2012,06,27,06,04,6.30
2012,06,27,06,05,6.20
2012,06,27,06,06,6.20
2012,06,27,06,07,6.20
2012,06,27,06,08,6.20
2012,06,27,06,09,6.20
2012,06,27,06,10,6.20
2012,06,27,06,11,6.20
2012,06,27,06,12,6.20
2012,06,27,06,13,6.20
2012,06,27,06,14,6.20
2012,06,27,06,15,6.20
2012,06,27,06,16,6.20
2012,06,27,06,17,6.20
2012,06,27,06,18,6.20
2012,06,27,06,19,6.20
2012,06,27,06,20,6.20
2012,06,27,06,21,6.20
2012,06,27,06,22,6.20
2012,06,27,06,23,6.20
2012,06,27,06,24,6.10
2012,06,27,06,25,6.20
2012,06,27,06,26,6.20
2012,06,27,06,27,6.20
2012,06,27,06,28,6.20
2012,06,27,06,29,6.10
2012,06,27,06,30,6.10
2012,06,27,06,31,6.10
2012,06,27,06,32,6.10
2012,06,27,06,33,6.10
2012,06,27,06,34,6.10
2012,06,27,06,35,6.10
2012,06,27,06,36,6.10
2012,06,27,06,37,6.10
2012,06,27,06,38,6.10
2012,06,27,06,39,6.10
2012,06,27,06,40,6.10
2012,06,27,06,41,6.10
2012,06,27,06,42,6.10
2012,06,27,06,43,6.20
2012,06,27,06,44,6.20
2012,06,27,06,45,6.20
2012,06,27,06,46,6.20
2012,06,27,06,47,6.20
2012,06,27,06,48,6.20
2012,06,27,06,49,6.20
2012,06,27,06,50,6.20
2012,06,27,06,51,6.20
2012,06,27,06,52,6.20
2012,06,27,06,53,6.30
2012,06,27,06,54,6.30
2012,06,27,06,55,6.30
2012,06,27,06,56,6.30
2012,06,27,06,57,6.30
2012,06,27,06,58,6.30
2012,06,27,06,59,6.40
2012,06,27,07,00,6.40
2012,06,27,07,01,6.40
2012,06,27,07,02,6.50
2012,06,27,07,03,6.50
2012,06,27,07,04,6.60
2012,06,27,07,05,6.60
2012,06,27,07,06,6.60
2012,06,27,07,07,6.60
2012,06,27,07,08,6.70
2012,06,27,07,09,6.70
2012,06,27,07,10,6.70
2012,06,27,07,11,6.70
2012,06,27,07,12,6.80
2012,06,27,07,13,6.80
2012,06,27,07,14,6.80
2012,06,27,07,15,6.90
2012,06,27,07,16,7.00
2012,06,27,07,17,7.00
2012,06,27,07,18,7.10
2012,06,27,07,19,7.20
2012,06,27,07,20,7.20
2012,06,27,07,21,7.30
2012,06,27,07,22,7.40
2012,06,27,07,23,7.50
2012,06,27,07,24,7.60
2012,06,27,07,25,7.80
2012,06,27,07,26,7.90
2012,06,27,07,27,8.10
2012,06,27,07,28,8.30
2012,06,27,07,29,8.40
2012,06,27,07,30,8.60
2012,06,27,07,31,8.80
2012,06,27,07,32,9.00
2012,06,27,07,33,9.20
2012,06,27,07,34,9.30
2012,06,27,07,35,9.50
2012,06,27,07,36,9.70
2012,06,27,07,37,9.80
2012,06,27,07,38,10.00
2012,06,27,07,39,10.20
2012,06,27,07,40,10.30
2012,06,27,07,41,10.40
2012,06,27,07,42,10.50
2012,06,27,07,43,10.60
2012,06,27,07,44,10.70
2012,06,27,07,45,10.80
2012,06,27,07,46,10.80
2012,06,27,07,47,10.90
2012,06,27,07,48,11.00
2012,06,27,07,49,11.10
2012,06,27,07,50,11.20
2012,06,27,07,51,11.30
2012,06,27,07,52,11.40
2012,06,27,07,53,11.50
2012,06,27,07,54,11.50
2012,06,27,07,55,11.60
2012,06,27,07,56,11.70
2012,06,27,07,57,11.80
2012,06,27,07,58,11.90
2012,06,27,07,59,12.00
2012,06,27,08,00,12.00
2012,06,27,08,01,12.10
2012,06,27,08,02,12.20
2012,06,27,08,03,12.30
2012,06,27,08,04,12.40
2012,06,27,08,05,12.50
2012,06,27,08,06,12.60
2012,06,27,08,07,12.70
2012,06,27,08,08,12.80
2012,06,27,08,09,12.90
2012,06,27,08,10,13.00
2012,06,27,08,11,13.10
2012,06,27,08,12,13.20
2012,06,27,08,13,13.30
2012,06,27,08,14,13.50
2012,06,27,08,15,13.60
2012,06,27,08,16,13.70
2012,06,27,08,17,13.70
2012,06,27,08,18,13.70
2012,06,27,08,19,13.80
2012,06,27,08,20,13.80
2012,06,27,08,21,13.80
2012,06,27,08,22,13.90
2012,06,27,08,23,13.90
2012,06,27,08,24,14.00
2012,06,27,08,25,14.00
2012,06,27,08,26,14.10
2012,06,27,08,27,14.20
2012,06,27,08,28,14.20
2012,06,27,08,29,14.30
2012,06,27,08,30,14.30
2012,06,27,08,31,14.40
2012,06,27,08,32,14.50
2012,06,27,08,33,14.60
2012,06,27,08,34,14.70
2012,06,27,08,35,14.70
2012,06,27,08,36,14.80
2012,06,27,08,37,14.90
2012,06,27,08,38,15.00
2012,06,27,08,39,15.00
2012,06,27,08,40,15.00
2012,06,27,08,41,15.00
2012,06,27,08,42,15.10
2012,06,27,08,43,15.20
2012,06,27,08,44,15.30
2012,06,27,08,45,15.30
2012,06,27,08,46,15.30
2012,06,27,08,47,15.30
2012,06,27,08,48,15.40
2012,06,27,08,49,15.30
2012,06,27,08,50,15.30
2012,06,27,08,51,15.30
2012,06,27,08,52,15.20
2012,06,27,08,53,15.10
2012,06,27,08,54,15.00
2012,06,27,08,55,15.00
2012,06,27,08,56,15.00
2012,06,27,08,57,15.00
2012,06,27,08,58,15.00
2012,06,27,08,59,15.00
2012,06,27,09,00,15.00
2012,06,27,09,01,15.10
2012,06,27,09,02,15.20
2012,06,27,09,03,15.20
2012,06,27,09,04,15.30
2012,06,27,09,05,15.30
2012,06,27,09,06,15.30
2012,06,27,09,07,15.20
2012,06,27,09,08,15.30
2012,06,27,09,09,15.20
2012,06,27,09,10,15.30
2012,06,27,09,11,15.30
2012,06,27,09,12,15.30
2012,06,27,09,13,15.40
2012,06,27,09,14,15.40
2012,06,27,09,15,15.40
2012,06,27,09,16,15.40
2012,06,27,09,17,15.50
2012,06,27,09,18,15.50
2012,06,27,09,19,15.50
2012,06,27,09,20,15.40
2012,06,27,09,21,15.30
2012,06,27,09,22,15.30
2012,06,27,09,23,15.30
2012,06,27,09,24,15.30
2012,06,27,09,25,15.30
2012,06,27,09,26,15.30
2012,06,27,09,27,15.30
2012,06,27,09,28,15.30
2012,06,27,09,29,15.30
2012,06,27,09,30,15.30
2012,06,27,09,31,15.40
2012,06,27,09,32,15.40
2012,06,27,09,33,15.40
2012,06,27,09,34,15.40
2012,06,27,09,35,15.40
2012,06,27,09,36,15.30
2012,06,27,09,37,15.20
2012,06,27,09,38,15.20
2012,06,27,09,39,15.10
2012,06,27,09,40,15.00
2012,06,27,09,41,15.00
2012,06,27,09,42,15.00
2012,06,27,09,43,15.00
2012,06,27,09,44,15.00
2012,06,27,09,45,15.00
2012,06,27,09,46,15.00
2012,06,27,09,47,15.00
2012,06,27,09,48,15.00
2012,06,27,09,49,15.00
2012,06,27,09,50,15.00
2012,06,27,09,51,15.00
2012,06,27,09,52,15.10
2012,06,27,09,53,15.20
2012,06,27,09,54,15.20
2012,06,27,09,55,15.20
2012,06,27,09,56,15.20
2012,06,27,09,57,15.20
2012,06,27,09,58,15.20
2012,06,27,09,59,15.30
2012,06,27,10,00,15.40
2012,06,27,10,01,15.50
2012,06,27,10,02,15.60
2012,06,27,10,03,15.70
2012,06,27,10,04,15.80
2012,06,27,10,05,15.90
2012,06,27,10,06,15.90
2012,06,27,10,07,16.00
2012,06,27,10,08,16.10
2012,06,27,10,09,16.10
2012,06,27,10,10,16.00
2012,06,27,10,11,16.00
2012,06,27,10,12,15.90
2012,06,27,10,13,15.80
2012,06,27,10,14,15.80
2012,06,27,10,15,15.80
2012,06,27,10,16,15.80
2012,06,27,10,17,15.90
2012,06,27,10,18,15.90
2012,06,27,10,19,16.00
2012,06,27,10,20,16.10
2012,06,27,10,21,16.10
2012,06,27,10,22,16.20
2012,06,27,10,23,16.20
2012,06,27,10,24,16.20
2012,06,27,10,25,16.30
2012,06,27,10,26,16.20
2012,06,27,10,27,16.10
2012,06,27,10,28,16.10
2012,06,27,10,29,16.10
2012,06,27,10,30,16.10
2012,06,27,10,31,16.10
2012,06,27,10,32,16.10
2012,06,27,10,33,16.20
2012,06,27,10,34,16.30
2012,06,27,10,35,16.40
2012,06,27,10,36,16.50
2012,06,27,10,37,16.40
2012,06,27,10,38,16.40
2012,06,27,10,39,16.20
2012,06,27,10,40,16.10
2012,06,27,10,41,16.10
2012,06,27,10,42,16.10
2012,06,27,10,43,16.00
2012,06,27,10,44,15.90
2012,06,27,10,45,15.90
2012,06,27,10,46,16.00
2012,06,27,10,47,16.00
2012,06,27,10,48,16.10
2012,06,27,10,49,16.10
2012,06,27,10,50,16.10
2012,06,27,10,51,16.10
2012,06,27,10,52,16.20
2012,06,27,10,53,16.20
2012,06,27,10,54,16.30
2012,06,27,10,55,16.30
2012,06,27,10,56,16.30
2012,06,27,10,57,16.40
2012,06,27,10,58,16.40
2012,06,27,10,59,16.40
2012,06,27,11,00,16.20
2012,06,27,11,01,16.10
2012,06,27,11,02,16.00
2012,06,27,11,03,15.90
2012,06,27,11,04,15.80
2012,06,27,11,05,15.80
2012,06,27,11,06,15.90
2012,06,27,11,07,16.00
2012,06,27,11,08,16.10
2012,06,27,11,09,16.10
2012,06,27,11,10,16.20
2012,06,27,11,11,16.20
2012,06,27,11,12,16.30
2012,06,27,11,13,16.40
2012,06,27,11,14,16.40
2012,06,27,11,15,16.40
2012,06,27,11,16,16.40
2012,06,27,11,17,16.40
2012,06,27,11,18,16.50
2012,06,27,11,19,16.60
2012,06,27,11,20,16.70
2012,06,27,11,21,16.80
2012,06,27,11,22,17.00
2012,06,27,11,23,17.10
2012,06,27,11,24,17.00
2012,06,27,11,25,17.00
2012,06,27,11,26,17.00
2012,06,27,11,27,17.10
2012,06,27,11,28,17.10
2012,06,27,11,29,17.20
2012,06,27,11,30,17.20
2012,06,27,11,31,17.20
2012,06,27,11,32,17.10
2012,06,27,11,33,17.00
2012,06,27,11,34,16.90
2012,06,27,11,35,16.80
2012,06,27,11,36,16.80
2012,06,27,11,37,16.70
2012,06,27,11,38,16.70
2012,06,27,11,39,16.60
2012,06,27,11,40,16.60
2012,06,27,11,41,16.60
2012,06,27,11,42,16.60
2012,06,27,11,43,16.60
2012,06,27,11,44,16.70
2012,06,27,11,45,16.80
2012,06,27,11,46,16.80
2012,06,27,11,47,16.90
2012,06,27,11,48,16.90
2012,06,27,11,49,17.00
2012,06,27,11,50,16.90
2012,06,27,11,51,16.80
2012,06,27,11,52,16.70
2012,06,27,11,53,16.70
2012,06,27,11,54,16.70
2012,06,27,11,55,16.70
2012,06,27,11,56,16.60
2012,06,27,11,57,16.50
2012,06,27,11,58,16.40
2012,06,27,11,59,16.50
2012,06,27,12,00,16.50
2012,06,27,12,01,16.50
2012,06,27,12,02,16.50
2012,06,27,12,03,16.60
2012,06,27,12,04,16.60
2012,06,27,12,05,16.70
2012,06,27,12,06,16.70
2012,06,27,12,07,16.70
2012,06,27,12,08,16.70
2012,06,27,12,09,16.70
2012,06,27,12,10,16.80
2012,06,27,12,11,16.80
2012,06,27,12,12,16.80
2012,06,27,12,13,16.70
2012,06,27,12,14,16.70
2012,06,27,12,15,16.70
2012,06,27,12,16,16.80
2012,06,27,12,17,16.80
2012,06,27,12,18,16.80
2012,06,27,12,19,16.90
2012,06,27,12,20,17.00
2012,06,27,12,21,17.10
2012,06,27,12,22,17.20
2012,06,27,12,23,17.10
2012,06,27,12,24,17.10
2012,06,27,12,25,17.10
2012,06,27,12,26,17.10
2012,06,27,12,27,17.20
2012,06,27,12,28,17.20
2012,06,27,12,29,17.20
2012,06,27,12,30,17.20
2012,06,27,12,31,17.10
2012,06,27,12,32,17.00
2012,06,27,12,33,16.90
2012,06,27,12,34,16.90
2012,06,27,12,35,16.80
2012,06,27,12,36,16.80
2012,06,27,12,37,16.80
2012,06,27,12,38,16.70
2012,06,27,12,39,16.70
2012,06,27,12,40,16.60
2012,06,27,12,41,16.70
2012,06,27,12,42,16.70
2012,06,27,12,43,16.80
2012,06,27,12,44,16.80
2012,06,27,12,45,16.90
2012,06,27,12,46,17.00
2012,06,27,12,47,17.10
2012,06,27,12,48,17.20
2012,06,27,12,49,17.30
2012,06,27,12,50,17.30
2012,06,27,12,51,17.30
2012,06,27,12,52,17.40
2012,06,27,12,53,17.30
2012,06,27,12,54,17.30
2012,06,27,12,55,17.20
2012,06,27,12,56,17.10
2012,06,27,12,57,17.10
2012,06,27,12,58,17.10
2012,06,27,12,59,17.10
2012,06,27,13,00,17.20
2012,06,27,13,01,17.30
2012,06,27,13,02,17.30
2012,06,27,13,03,17.30
2012,06,27,13,04,17.30
2012,06,27,13,05,17.30
2012,06,27,13,06,17.20
2012,06,27,13,07,17.20
2012,06,27,13,08,17.20
2012,06,27,13,09,17.30
2012,06,27,13,10,17.20
2012,06,27,13,11,17.20
2012,06,27,13,12,17.30
2012,06,27,13,13,17.30
2012,06,27,13,14,17.30
2012,06,27,13,15,17.40
2012,06,27,13,16,17.50
2012,06,27,13,17,17.50
2012,06,27,13,18,17.60
2012,06,27,13,19,17.60
2012,06,27,13,20,17.70
2012,06,27,13,21,17.80
2012,06,27,13,22,17.80
2012,06,27,13,23,17.80
2012,06,27,13,24,17.90
2012,06,27,13,25,17.90
2012,06,27,13,26,18.00
2012,06,27,13,27,18.00
2012,06,27,13,28,18.00
2012,06,27,13,29,18.10
2012,06,27,13,30,18.10
2012,06,27,13,31,18.10
2012,06,27,13,32,18.10
2012,06,27,13,33,18.10
2012,06,27,13,34,18.10
2012,06,27,13,35,18.00
2012,06,27,13,36,18.00
2012,06,27,13,37,18.00
2012,06,27,13,38,18.00
2012,06,27,13,39,18.00
2012,06,27,13,40,18.00
2012,06,27,13,41,18.00
2012,06,27,13,42,18.00
2012,06,27,13,43,18.10
2012,06,27,13,44,18.00
2012,06,27,13,45,17.80
2012,06,27,13,46,17.70
2012,06,27,13,47,17.80
2012,06,27,13,48,17.80
2012,06,27,13,49,17.80
2012,06,27,13,50,17.80
2012,06,27,13,51,17.80
2012,06,27,13,52,17.60
2012,06,27,13,53,17.60
2012,06,27,13,54,17.60
2012,06,27,13,55,17.60
2012,06,27,13,56,17.70
2012,06,27,13,57,17.80
2012,06,27,13,58,17.80
2012,06,27,13,59,17.90
2012,06,27,14,00,17.90
2012,06,27,14,01,17.80
2012,06,27,14,02,17.80
2012,06,27,14,03,17.80
2012,06,27,14,04,17.90
2012,06,27,14,05,18.00
2012,06,27,14,06,18.00
2012,06,27,14,07,18.00
2012,06,27,14,08,18.00
2012,06,27,14,09,18.10
2012,06,27,14,10,18.10
2012,06,27,14,11,18.10
2012,06,27,14,12,18.00
2012,06,27,14,13,18.00
2012,06,27,14,14,17.90
2012,06,27,14,15,17.90
2012,06,27,14,16,17.90
2012,06,27,14,17,17.90
2012,06,27,14,18,17.90
2012,06,27,14,19,17.90
2012,06,27,14,20,17.90
2012,06,27,14,21,17.80
2012,06,27,14,22,17.80
2012,06,27,14,23,17.80
2012,06,27,14,24,17.80
2012,06,27,14,25,17.90
2012,06,27,14,26,17.90
2012,06,27,14,27,17.90
2012,06,27,14,28,17.90
2012,06,27,14,29,17.80
2012,06,27,14,30,17.70
2012,06,27,14,31,17.70
2012,06,27,14,32,17.80
2012,06,27,14,33,17.80
2012,06,27,14,34,17.80
2012,06,27,14,35,17.80
2012,06,27,14,36,17.90
2012,06,27,14,37,17.90
2012,06,27,14,38,17.80
2012,06,27,14,39,17.80
2012,06,27,14,40,17.80
2012,06,27,14,41,17.80
2012,06,27,14,42,17.90
2012,06,27,14,43,18.00
2012,06,27,14,44,18.00
2012,06,27,14,45,18.10
2012,06,27,14,46,18.20
2012,06,27,14,47,18.40
2012,06,27,14,48,18.50
2012,06,27,14,49,18.70
2012,06,27,14,50,18.80
2012,06,27,14,51,18.80
2012,06,27,14,52,18.90
2012,06,27,14,53,18.90
2012,06,27,14,54,18.90
2012,06,27,14,55,18.90
2012,06,27,14,56,18.90
2012,06,27,14,57,18.90
2012,06,27,14,58,18.90
2012,06,27,14,59,18.80
2012,06,27,15,00,18.80
2012,06,27,15,01,18.80
2012,06,27,15,02,18.80
2012,06,27,15,03,18.80
2012,06,27,15,04,18.90
2012,06,27,15,05,18.90
2012,06,27,15,06,18.90
2012,06,27,15,07,18.90
2012,06,27,15,08,18.90
2012,06,27,15,09,18.90
2012,06,27,15,10,18.90
2012,06,27,15,11,18.90
2012,06,27,15,12,18.90
2012,06,27,15,13,18.80
2012,06,27,15,14,18.80
2012,06,27,15,15,18.70
2012,06,27,15,16,18.70
2012,06,27,15,17,18.60
2012,06,27,15,18,18.60
2012,06,27,15,19,18.60
2012,06,27,15,20,18.60
2012,06,27,15,21,18.60
2012,06,27,15,22,18.60
2012,06,27,15,23,18.70
2012,06,27,15,24,18.70
2012,06,27,15,25,18.70
2012,06,27,15,26,18.70
2012,06,27,15,27,18.70
2012,06,27,15,28,18.80
2012,06,27,15,29,18.60
2012,06,27,15,30,18.60
2012,06,27,15,31,18.60
2012,06,27,15,32,18.60
2012,06,27,15,33,18.40
2012,06,27,15,34,18.20
2012,06,27,15,35,18.10
2012,06,27,15,36,18.10
2012,06,27,15,37,18.20
2012,06,27,15,38,18.20
2012,06,27,15,39,18.20
2012,06,27,15,40,18.30
2012,06,27,15,41,18.40
2012,06,27,15,42,18.50
2012,06,27,15,43,18.60
2012,06,27,15,44,18.70
2012,06,27,15,45,18.80
2012,06,27,15,46,18.80
2012,06,27,15,47,18.80
2012,06,27,15,48,18.90
2012,06,27,15,49,18.80
2012,06,27,15,50,18.80
2012,06,27,15,51,18.70
2012,06,27,15,52,18.60
2012,06,27,15,53,18.50
2012,06,27,15,54,18.50
2012,06,27,15,55,18.50
2012,06,27,15,56,18.50
2012,06,27,15,57,18.40
2012,06,27,15,58,18.30
2012,06,27,15,59,18.20
2012,06,27,16,00,18.20
2012,06,27,16,01,18.20
2012,06,27,16,02,18.20
2012,06,27,16,03,18.20
2012,06,27,16,04,18.20
2012,06,27,16,05,18.20
2012,06,27,16,06,18.20
2012,06,27,16,07,18.20
2012,06,27,16,08,18.20
2012,06,27,16,09,18.20
2012,06,27,16,10,18.20
2012,06,27,16,11,18.10
2012,06,27,16,12,18.00
2012,06,27,16,13,18.00
2012,06,27,16,14,18.00
2012,06,27,16,15,17.90
2012,06,27,16,16,18.00
2012,06,27,16,17,18.00
2012,06,27,16,18,18.00
2012,06,27,16,19,18.00
2012,06,27,16,20,18.00
2012,06,27,16,21,18.00
2012,06,27,16,22,18.00
2012,06,27,16,23,18.00
2012,06,27,16,24,18.10
2012,06,27,16,25,18.10
2012,06,27,16,26,18.20
2012,06,27,16,27,18.20
2012,06,27,16,28,18.20
2012,06,27,16,29,18.30
2012,06,27,16,30,18.20
2012,06,27,16,31,18.20
2012,06,27,16,32,18.20
2012,06,27,16,33,18.20
2012,06,27,16,34,18.20
2012,06,27,16,35,18.20
2012,06,27,16,36,18.10
2012,06,27,16,37,18.10
2012,06,27,16,38,18.00
2012,06,27,16,39,18.00
2012,06,27,16,40,17.90
2012,06,27,16,41,17.80
2012,06,27,16,42,17.80
2012,06,27,16,43,17.70
2012,06,27,16,44,17.70
2012,06,27,16,45,17.70
2012,06,27,16,46,17.70
2012,06,27,16,47,17.70
2012,06,27,16,48,17.80
2012,06,27,16,49,17.80
2012,06,27,16,50,17.90
2012,06,27,16,51,17.90
2012,06,27,16,52,17.90
2012,06,27,16,53,17.90
2012,06,27,16,54,17.90
2012,06,27,16,55,18.00
2012,06,27,16,56,18.00
2012,06,27,16,57,18.00
2012,06,27,16,58,18.10
2012,06,27,16,59,18.10
2012,06,27,17,00,18.10
2012,06,27,17,01,18.10
2012,06,27,17,02,18.10
2012,06,27,17,03,18.10
2012,06,27,17,04,18.10
2012,06,27,17,05,18.10
2012,06,27,17,06,18.10
2012,06,27,17,07,18.10
2012,06,27,17,08,18.10
2012,06,27,17,09,18.20
2012,06,27,17,10,18.20
2012,06,27,17,11,18.20
2012,06,27,17,12,18.20
2012,06,27,17,13,18.20
2012,06,27,17,14,18.20
2012,06,27,17,15,18.20
2012,06,27,17,16,18.20
2012,06,27,17,17,18.10
2012,06,27,17,18,18.10
2012,06,27,17,19,18.10
2012,06,27,17,20,18.10
2012,06,27,17,21,18.10
2012,06,27,17,22,18.10
2012,06,27,17,23,18.10
2012,06,27,17,24,18.10
2012,06,27,17,25,18.10
2012,06,27,17,26,18.00
2012,06,27,17,27,18.00
2012,06,27,17,28,18.00
2012,06,27,17,29,17.90
2012,06,27,17,30,17.80
2012,06,27,17,31,17.80
2012,06,27,17,32,17.80
2012,06,27,17,33,17.80
2012,06,27,17,34,17.80
2012,06,27,17,35,17.80
2012,06,27,17,36,17.90
2012,06,27,17,37,17.90